{"data":{"norad_id":65238,"epoch":"2026-05-25T01:45:28.950336Z","epoch_age_seconds":79387,"freshness":"FRESH","line1":"1 65238U 25179D   26145.07325174 -.00000115  00000+0 -39304-5 0  9997","line2":"2 65238  97.4504 187.9205 0001493 126.0333 234.1032 15.05646660 43047","mean_motion":15.0564666,"eccentricity":0.0001493,"inclination_deg":97.4504,"raan_deg":187.9205,"arg_perigee_deg":126.0333,"mean_anomaly_deg":234.1032,"bstar":-3.9304e-6,"rev_number":4304,"period_min":95.639969074816,"perigee_km":548.48709977792,"apogee_km":550.55569857591,"semimajor_km":6927.6583991769,"source":"CELESTRAK","updated_at":"2026-05-25T13:38:20.724450Z"}}